Skip Page Navigation
NASA JPL Caltech
NASA Logo - Jet Propulsion Laboratory + View the NASA Portal
+ Near-Earth Object (NEO) Program
Search JPL
JPL Home Earth Solar System Stars & Galaxies Technology
JPL Solar System Dynamics
BODIES ORBITS EPHEMERIDES TOOLS PHYSICAL DATA DISCOVERY FAQ SITE MAP
JPL Small-Body Database Browser
Search: [ help ]  
73708 (1992 DV)
Classification: Main-belt Asteroid          SPK-ID: 2073708
Ephemeris | Orbit Diagram | Orbital Elements | Physical Parameters | Discovery Circumstances | Close-Approach Data ]

[ show orbit diagram ]
Orbital Elements at Epoch 2456800.5 (2014-May-23.0) TDB
Reference: JPL 12 (heliocentric ecliptic J2000)
 Element Value Uncertainty (1-sigma)   Units 
e .2884502559381898 7.0952e-08  
a 2.67769915219941 1.7041e-08 AU
q 1.905316146422016 1.866e-07 AU
i 7.945776519986529 7.5764e-06 deg
node 149.5226749405375 6.2277e-05 deg
peri 5.327248938944577 6.4558e-05 deg
M 33.10424407324124 1.4009e-05 deg
tp 2456653.328989080854
(2013-Dec-26.82898908)
6.1886e-05 JED
period 1600.446269477532
4.38
1.5278e-05
4.183e-08
d
yr
n .2249372608538257 2.1472e-09 deg/d
Q 3.450082157976804 2.1956e-08 AU
  Orbit Determination Parameters
   # obs. used (total)      375  
   data-arc span      8162 days (22.35 yr)  
   first obs. used      1992-02-25  
   last obs. used      2014-07-01  
   planetary ephem.      DE431  
   SB-pert. ephem.      SB431-BIG16  
   condition code      0  
   fit RMS      .5966  
   data source      ORB  
   producer      Otto Matic  
   solution date      2014-Jul-14 14:10:58  

Additional Information
 Earth MOID = .915947 AU 
 T_jup = 3.304 
[ show covariance matrix ]

Ephemeris | Orbit Diagram | Orbital Elements | Physical Parameters | Discovery Circumstances | Close-Approach Data ]

Physical Parameter Table
Parameter Symbol Value Units Sigma Reference Notes
absolute magnitude H 15.2 mag n/a MPO280220  

73708 (1992 DV)          Discovered 1992-Feb-25 by Ueda, S., Kaneda, H. at Kushiro (399)
Reference: 20040415/Numbers.arcLast Updated: 2004-04-19

[ show close-approach data ]
Ephemeris | Orbit Diagram | Orbital Elements | Physical Parameters | Discovery Circumstances | Close-Approach Data ]
ABOUT SSD CREDITS/AWARDS PRIVACY/COPYRIGHT GLOSSARY LINKS
FirstGov 2014-Jul-31 19:37 UT
(server date/time)  
NASA Home Page
Site Manager:   Donald K. Yeomans
Webmaster  Alan B. Chamberlin